TimeEST,TemperatureF,Dew PointF,Humidity,Sea Level PressureIn,VisibilityMPH,Wind Direction,Wind SpeedMPH,Gust SpeedMPH,PrecipitationIn,Events,Conditions,WindDirDegrees,DateUTC
12:55 AM,59.7,57.4,92,29.98,10.0,South,3.5,-,N/A,,Scattered Clouds,190,2012-12-10 05:55:00
1:55 AM,60.1,57.9,93,29.95,10.0,South,5.8,-,N/A,,Partly Cloudy,180,2012-12-10 06:55:00
2:55 AM,59.7,57.9,94,29.94,10.0,South,4.6,-,N/A,,Clear,170,2012-12-10 07:55:00
3:55 AM,59.9,58.5,95,29.91,10.0,South,5.8,-,N/A,,Mostly Cloudy,170,2012-12-10 08:55:00
4:29 AM,59.0,59.0,100,29.89,10.0,SSE,5.8,-,N/A,,Overcast,160,2012-12-10 09:29:00
4:33 AM,59.0,59.0,100,29.89,10.0,SSE,4.6,-,N/A,,Overcast,160,2012-12-10 09:33:00
4:44 AM,60.8,59.0,94,29.89,10.0,SSE,4.6,-,N/A,,Mostly Cloudy,160,2012-12-10 09:44:00
4:55 AM,59.9,58.8,96,29.89,10.0,South,5.8,-,N/A,,Mostly Cloudy,170,2012-12-10 09:55:00
5:20 AM,60.8,59.0,94,29.88,10.0,South,5.8,-,N/A,,Mostly Cloudy,170,2012-12-10 10:20:00
5:51 AM,60.8,59.0,94,29.87,10.0,South,6.9,-,N/A,,Mostly Cloudy,180,2012-12-10 10:51:00
5:55 AM,60.6,59.7,97,29.87,10.0,South,4.6,-,N/A,,Mostly Cloudy,180,2012-12-10 10:55:00
6:39 AM,60.8,60.8,100,29.86,10.0,South,8.1,-,N/A,,Mostly Cloudy,170,2012-12-10 11:39:00
6:41 AM,60.8,60.8,100,29.86,10.0,South,6.9,-,N/A,,Mostly Cloudy,170,2012-12-10 11:41:00
6:55 AM,61.3,60.4,97,29.86,10.0,South,6.9,-,N/A,,Overcast,180,2012-12-10 11:55:00
7:28 AM,60.8,60.8,100,29.85,10.0,South,5.8,-,N/A,,Mostly Cloudy,170,2012-12-10 12:28:00
7:34 AM,60.8,60.8,100,29.85,10.0,South,5.8,-,N/A,,Mostly Cloudy,170,2012-12-10 12:34:00
7:55 AM,61.9,61.0,97,29.85,10.0,Calm,Calm,-,N/A,,Overcast,0,2012-12-10 12:55:00
8:49 AM,64.4,62.6,94,29.83,10.0,South,4.6,-,N/A,,Overcast,170,2012-12-10 13:49:00
8:55 AM,63.9,62.4,95,29.83,10.0,SSE,5.8,-,N/A,,Overcast,160,2012-12-10 13:55:00
9:55 AM,64.2,62.1,93,29.83,10.0,South,3.5,-,N/A,,Overcast,170,2012-12-10 14:55:00
9:57 AM,64.4,62.6,94,29.83,10.0,South,4.6,-,N/A,,Overcast,180,2012-12-10 14:57:00
10:04 AM,64.4,62.6,94,29.82,10.0,South,4.6,-,N/A,,Overcast,170,2012-12-10 15:04:00
10:55 AM,65.1,62.4,91,29.79,10.0,SSE,5.8,-,N/A,,Overcast,160,2012-12-10 15:55:00
11:55 AM,67.3,63.3,87,29.75,10.0,Variable,5.8,-,N/A,,Overcast,0,2012-12-10 16:55:00
12:42 PM,68.0,62.6,83,29.73,10.0,Variable,5.8,-,N/A,,Overcast,0,2012-12-10 17:42:00
12:55 PM,67.1,62.6,85,29.72,10.0,SW,10.4,-,N/A,,Overcast,230,2012-12-10 17:55:00
1:16 PM,68.0,62.6,83,29.71,10.0,SW,6.9,-,N/A,,Overcast,220,2012-12-10 18:16:00
1:55 PM,68.7,62.6,81,29.68,10.0,SSW,9.2,-,N/A,,Scattered Clouds,200,2012-12-10 18:55:00
2:15 PM,68.0,62.6,83,29.69,10.0,SW,8.1,-,N/A,,Mostly Cloudy,230,2012-12-10 19:15:00
2:18 PM,68.0,62.6,83,29.69,10.0,SSW,9.2,-,N/A,,Scattered Clouds,210,2012-12-10 19:18:00
2:55 PM,68.5,61.0,77,29.68,10.0,SW,11.5,19.6,N/A,,Mostly Cloudy,230,2012-12-10 19:55:00
3:55 PM,68.5,59.9,74,29.68,10.0,SW,6.9,-,N/A,,Partly Cloudy,220,2012-12-10 20:55:00
4:55 PM,67.8,59.0,73,29.68,10.0,SSW,11.5,-,N/A,,Overcast,210,2012-12-10 21:55:00
5:55 PM,67.6,58.3,72,29.68,10.0,SSW,11.5,17.3,0.01,,Mostly Cloudy,200,2012-12-10 22:55:00
6:55 PM,66.2,59.0,78,29.70,10.0,Variable,6.9,-,N/A,,Overcast,0,2012-12-10 23:55:00
7:55 PM,65.3,57.2,75,29.69,10.0,SSW,9.2,-,N/A,,Clear,200,2012-12-11 00:55:00
8:55 PM,64.4,56.8,76,29.68,10.0,SSW,10.4,19.6,N/A,,Mostly Cloudy,200,2012-12-11 01:55:00
9:55 PM,64.0,56.5,76,29.66,10.0,Variable,6.9,-,N/A,,Mostly Cloudy,0,2012-12-11 02:55:00
10:55 PM,63.7,56.5,77,29.67,10.0,SSW,10.4,16.1,N/A,,Mostly Cloudy,200,2012-12-11 03:55:00
11:55 PM,64.2,57.4,78,29.68,10.0,SSW,12.7,-,N/A,,Mostly Cloudy,200,2012-12-11 04:55:00